(°C)
(°C)
-1°
-1°
-2°
-2°
N
N
N
N
N
N
N
(km/h)
15-21
15-22
14-22
13-21
12-24
11-21
10-22
(mm)
0
0
0
0
0
0
0
(%)
0
0
0
0
0
0
0

Elevación del sol

/ -32.6°
sun-icon
UV 1
07:27
19:21
Gibosa menguante (264°)
22:43
15:23

METAR a 51.15°N 51.54°E (UARR)

Hora Condiciones Temperatura/
Punto de condensación
Viento Visibilidad Tiempo Nubes Presión Cambiar Bruto
VFR 6°C / 2°C 340º 6kt >10km - Clouds and Visibility OK 1021 No Significant change UARR 281730Z 34003MPS CAVOK 06/02 Q1021 R04/CLRD70 NOSIG RMK QFE763/1017
VFR 6°C / 2°C 350º 6kt >10km - Clouds and Visibility OK 1021 No Significant change UARR 281700Z 35003MPS CAVOK 06/02 Q1021 R04/CLRD70 NOSIG RMK QFE762/1017
VFR 7°C / 2°C 350º 8kt >10km - Clouds and Visibility OK 1021 No Significant change UARR 281630Z 35004MPS CAVOK 07/02 Q1021 R04/CLRD70 NOSIG RMK QFE762/1017
VFR 7°C / 2°C 350º 6kt >10km - Clouds and Visibility OK 1021 No Significant change UARR 281600Z 35003MPS CAVOK 07/02 Q1021 R04/CLRD70 NOSIG RMK QFE762/1016
VFR 7°C / 2°C 340º 8kt >10km - Clouds and Visibility OK 1021 No Significant change UARR 281530Z 34004MPS CAVOK 07/02 Q1021 R04/CLRD70 NOSIG RMK QFE762/1016
VFR 7°C / 2°C 340º 8kt >10km - Clouds and Visibility OK 1020 No Significant change UARR 281500Z 34004MPS CAVOK 07/02 Q1020 R04/CLRD70 NOSIG RMK QFE762/1016
VFR 8°C / 2°C 350º 8kt >10km - Broken Clouds 4900ft 1020 No Significant change UARR 281430Z 35004MPS 9999 BKN049 08/02 Q1020 R04/CLRD70 NOSIG RMK QFE761/1015
VFR 7°C / 2°C 350º 8kt >10km - Broken Clouds 4800ft 1020 No Significant change UARR 281400Z 35004MPS 9999 BKN048 07/02 Q1020 R04/CLRD70 NOSIG RMK QFE761/1015
VFR 7°C / 2°C 350º 8kt >10km - Broken Clouds 4800ft 1020 No Significant change UARR 281330Z 35004MPS 9999 BKN048 07/02 Q1020 R04/CLRD70 NOSIG RMK QFE761/1015
VFR 7°C / 3°C 350º 10kt >10km - Broken Clouds 4200ft 1019 No Significant change UARR 281300Z 35005MPS 9999 BKN042 07/03 Q1019 R04/CLRD70 NOSIG RMK QFE761/1015
VFR 7°C / 2°C 350º 8kt >10km - Broken Clouds 3600ft 1019 No Significant change UARR 281230Z 35004MPS 9999 BKN036 07/02 Q1019 R04/CLRD70 NOSIG RMK QFE761/1015
VFR 8°C / 2°C 350º 12kt >10km - Broken Clouds 4800ft 1019 No Significant change UARR 281200Z 35006MPS 9999 BKN048 08/02 Q1019 R04/CLRD70 NOSIG RMK QFE761/1014
VFR 8°C / 2°C 350º 10kt >10km - Broken Clouds 4500ft 1019 No Significant change UARR 281130Z 35005MPS 9999 BKN045 08/02 Q1019 R04/CLRD70 NOSIG RMK QFE761/1014
VFR 7°C / 3°C 340º 10kt >10km - Broken Clouds 4600ft 1018 No Significant change UARR 281100Z 34005MPS 9999 BKN046 07/03 Q1018 R04/CLRD70 NOSIG RMK QFE760/1014
VFR 7°C / 2°C 350º 12kt >10km - Broken Clouds 3200ft 1018 No Significant change UARR 281030Z 35006MPS 9999 BKN032 07/02 Q1018 R04/CLRD70 NOSIG RMK QFE760/1014
VFR 7°C / 2°C 360º 12kt >10km - Broken Clouds 3700ft 1018 No Significant change UARR 281000Z 36006MPS 9999 BKN037 07/02 Q1018 R04/CLRD70 NOSIG RMK QFE760/1014
MVFR 7°C / 2°C 350º 16kt >10km - Broken Clouds 2400ft 1018 No Significant change UARR 280930Z 35008MPS 9999 BKN024 07/02 Q1018 R04/CLRD70 NOSIG RMK QFE760/1013
VFR 8°C / 2°C 360º 14kt >10km - Broken Clouds 3800ft 1018 No Significant change UARR 280900Z 36007MPS 9999 BKN038 08/02 Q1018 R04/CLRD70 NOSIG RMK QFE760/1013
VFR 7°C / 2°C 10º 10kt >10km - Broken Clouds 3200ft 1017 No Significant change UARR 280830Z 01005MPS 9999 BKN032 07/02 Q1017 R04/CLRD70 NOSIG RMK QFE760/1013
VFR 7°C / 2°C 360º 12kt >10km - Broken Clouds 4900ft 1017 No Significant change UARR 280800Z 36006MPS 9999 BKN049 07/02 Q1017 R04/CLRD70 NOSIG RMK QFE759/1013
MVFR 7°C / 3°C 10º 12kt >10km - Broken Clouds 2200ft 1017 No Significant change UARR 280730Z 01006MPS 9999 BKN022 07/03 Q1017 R04/CLRD70 NOSIG RMK QFE759/1012
MVFR 7°C / 2°C 20º 14kt >10km - Broken Clouds 2300ft 1017 No Significant change UARR 280700Z 02007MPS 9999 BKN023 07/02 Q1017 R04/CLRD70 NOSIG RMK QFE759/1012
VFR 7°C / 2°C 360º 14kt >10km - Broken Clouds 4800ft 1016 No Significant change UARR 280630Z 36007MPS 9999 BKN048 07/02 Q1016 R04/CLRD70 NOSIG RMK QFE759/1012
VFR 6°C / 3°C 360º 12kt >10km - Broken Clouds 4700ft 1016 No Significant change UARR 280600Z 36006MPS 9999 BKN047 06/03 Q1016 R04/CLRD70 NOSIG RMK QFE759/1012

VFR

6°C / 2°C

[Más]
Viento 340º 6kt
Visibilidad >10km
Tiempo -
Nubes Clouds and Visibility OK
Presión 1021
Cambiar No Significant change
Bruto UARR 281730Z 34003MPS CAVOK 06/02 Q1021 R04/CLRD70 NOSIG RMK QFE763/1017

VFR

6°C / 2°C

[Más]
Viento 350º 6kt
Visibilidad >10km
Tiempo -
Nubes Clouds and Visibility OK
Presión 1021
Cambiar No Significant change
Bruto UARR 281700Z 35003MPS CAVOK 06/02 Q1021 R04/CLRD70 NOSIG RMK QFE762/1017

VFR

7°C / 2°C

[Más]
Viento 350º 8kt
Visibilidad >10km
Tiempo -
Nubes Clouds and Visibility OK
Presión 1021
Cambiar No Significant change
Bruto UARR 281630Z 35004MPS CAVOK 07/02 Q1021 R04/CLRD70 NOSIG RMK QFE762/1017

VFR

7°C / 2°C

[Más]
Viento 350º 6kt
Visibilidad >10km
Tiempo -
Nubes Clouds and Visibility OK
Presión 1021
Cambiar No Significant change
Bruto UARR 281600Z 35003MPS CAVOK 07/02 Q1021 R04/CLRD70 NOSIG RMK QFE762/1016

VFR

7°C / 2°C

[Más]
Viento 340º 8kt
Visibilidad >10km
Tiempo -
Nubes Clouds and Visibility OK
Presión 1021
Cambiar No Significant change
Bruto UARR 281530Z 34004MPS CAVOK 07/02 Q1021 R04/CLRD70 NOSIG RMK QFE762/1016

VFR

7°C / 2°C

[Más]
Viento 340º 8kt
Visibilidad >10km
Tiempo -
Nubes Clouds and Visibility OK
Presión 1020
Cambiar No Significant change
Bruto UARR 281500Z 34004MPS CAVOK 07/02 Q1020 R04/CLRD70 NOSIG RMK QFE762/1016

VFR

8°C / 2°C

[Más]
Viento 350º 8kt
Visibilidad >10km
Tiempo -
Nubes Broken Clouds 4900ft
Presión 1020
Cambiar No Significant change
Bruto UARR 281430Z 35004MPS 9999 BKN049 08/02 Q1020 R04/CLRD70 NOSIG RMK QFE761/1015

VFR

7°C / 2°C

[Más]
Viento 350º 8kt
Visibilidad >10km
Tiempo -
Nubes Broken Clouds 4800ft
Presión 1020
Cambiar No Significant change
Bruto UARR 281400Z 35004MPS 9999 BKN048 07/02 Q1020 R04/CLRD70 NOSIG RMK QFE761/1015

VFR

7°C / 2°C

[Más]
Viento 350º 8kt
Visibilidad >10km
Tiempo -
Nubes Broken Clouds 4800ft
Presión 1020
Cambiar No Significant change
Bruto UARR 281330Z 35004MPS 9999 BKN048 07/02 Q1020 R04/CLRD70 NOSIG RMK QFE761/1015

VFR

7°C / 3°C

[Más]
Viento 350º 10kt
Visibilidad >10km
Tiempo -
Nubes Broken Clouds 4200ft
Presión 1019
Cambiar No Significant change
Bruto UARR 281300Z 35005MPS 9999 BKN042 07/03 Q1019 R04/CLRD70 NOSIG RMK QFE761/1015

VFR

7°C / 2°C

[Más]
Viento 350º 8kt
Visibilidad >10km
Tiempo -
Nubes Broken Clouds 3600ft
Presión 1019
Cambiar No Significant change
Bruto UARR 281230Z 35004MPS 9999 BKN036 07/02 Q1019 R04/CLRD70 NOSIG RMK QFE761/1015

VFR

8°C / 2°C

[Más]
Viento 350º 12kt
Visibilidad >10km
Tiempo -
Nubes Broken Clouds 4800ft
Presión 1019
Cambiar No Significant change
Bruto UARR 281200Z 35006MPS 9999 BKN048 08/02 Q1019 R04/CLRD70 NOSIG RMK QFE761/1014

VFR

8°C / 2°C

[Más]
Viento 350º 10kt
Visibilidad >10km
Tiempo -
Nubes Broken Clouds 4500ft
Presión 1019
Cambiar No Significant change
Bruto UARR 281130Z 35005MPS 9999 BKN045 08/02 Q1019 R04/CLRD70 NOSIG RMK QFE761/1014

VFR

7°C / 3°C

[Más]
Viento 340º 10kt
Visibilidad >10km
Tiempo -
Nubes Broken Clouds 4600ft
Presión 1018
Cambiar No Significant change
Bruto UARR 281100Z 34005MPS 9999 BKN046 07/03 Q1018 R04/CLRD70 NOSIG RMK QFE760/1014

VFR

7°C / 2°C

[Más]
Viento 350º 12kt
Visibilidad >10km
Tiempo -
Nubes Broken Clouds 3200ft
Presión 1018
Cambiar No Significant change
Bruto UARR 281030Z 35006MPS 9999 BKN032 07/02 Q1018 R04/CLRD70 NOSIG RMK QFE760/1014

VFR

7°C / 2°C

[Más]
Viento 360º 12kt
Visibilidad >10km
Tiempo -
Nubes Broken Clouds 3700ft
Presión 1018
Cambiar No Significant change
Bruto UARR 281000Z 36006MPS 9999 BKN037 07/02 Q1018 R04/CLRD70 NOSIG RMK QFE760/1014

MVFR

7°C / 2°C

[Más]
Viento 350º 16kt
Visibilidad >10km
Tiempo -
Nubes Broken Clouds 2400ft
Presión 1018
Cambiar No Significant change
Bruto UARR 280930Z 35008MPS 9999 BKN024 07/02 Q1018 R04/CLRD70 NOSIG RMK QFE760/1013

VFR

8°C / 2°C

[Más]
Viento 360º 14kt
Visibilidad >10km
Tiempo -
Nubes Broken Clouds 3800ft
Presión 1018
Cambiar No Significant change
Bruto UARR 280900Z 36007MPS 9999 BKN038 08/02 Q1018 R04/CLRD70 NOSIG RMK QFE760/1013

VFR

7°C / 2°C

[Más]
Viento 10º 10kt
Visibilidad >10km
Tiempo -
Nubes Broken Clouds 3200ft
Presión 1017
Cambiar No Significant change
Bruto UARR 280830Z 01005MPS 9999 BKN032 07/02 Q1017 R04/CLRD70 NOSIG RMK QFE760/1013

VFR

7°C / 2°C

[Más]
Viento 360º 12kt
Visibilidad >10km
Tiempo -
Nubes Broken Clouds 4900ft
Presión 1017
Cambiar No Significant change
Bruto UARR 280800Z 36006MPS 9999 BKN049 07/02 Q1017 R04/CLRD70 NOSIG RMK QFE759/1013

MVFR

7°C / 3°C

[Más]
Viento 10º 12kt
Visibilidad >10km
Tiempo -
Nubes Broken Clouds 2200ft
Presión 1017
Cambiar No Significant change
Bruto UARR 280730Z 01006MPS 9999 BKN022 07/03 Q1017 R04/CLRD70 NOSIG RMK QFE759/1012

MVFR

7°C / 2°C

[Más]
Viento 20º 14kt
Visibilidad >10km
Tiempo -
Nubes Broken Clouds 2300ft
Presión 1017
Cambiar No Significant change
Bruto UARR 280700Z 02007MPS 9999 BKN023 07/02 Q1017 R04/CLRD70 NOSIG RMK QFE759/1012

VFR

7°C / 2°C

[Más]
Viento 360º 14kt
Visibilidad >10km
Tiempo -
Nubes Broken Clouds 4800ft
Presión 1016
Cambiar No Significant change
Bruto UARR 280630Z 36007MPS 9999 BKN048 07/02 Q1016 R04/CLRD70 NOSIG RMK QFE759/1012

VFR

6°C / 3°C

[Más]
Viento 360º 12kt
Visibilidad >10km
Tiempo -
Nubes Broken Clouds 4700ft
Presión 1016
Cambiar No Significant change
Bruto UARR 280600Z 36006MPS 9999 BKN047 06/03 Q1016 R04/CLRD70 NOSIG RMK QFE759/1012

TAF a 51.15°N 51.54°E (UARR)

From till


From till Wind 350º 8kt. Gust 17kt. Visibility 10km or more. Broken Clouds 1100ft. Broken Clouds 3000ft.
Temporarly from till Visibility 3100m. Mist .

Bruto: TAF UARR 281700Z 2818/2903 35004G09MPS 9999 BKN011 BKN030CB TEMPO 2821/2903 3100 BR

Imágenes actuales de satélite y lluvia para 51.15°N 51.54°E

El marcador de lugar se coloca en 51.15°N 51.54°E. [Más]

La imagen de satélite en tiempo real se aprovecha de la combinación de bandas de la luz visible y de la luz infrarrojo. Como se puede detectar cambios de temperaturas atreves de la banda infrarrojo, la imagen no está escura de noche. No obstante, la niebla y las nubes bajas son apenas visibles en las imágenes infrarrojo como las diferencias de temperaturas entre el suelo y la niebla son muy pequeñas. Por eso son casi invisibles durante la noche. Las imágenes de satélite del Meteosat (Europa) son actualizados en tiempo real cada 5 minutos. Las imágenes del GOES-16/GOES-17 (América del Norte y América del Sur) y Himawari (Asia) son actualizados cada 10 minutos.

Copyright 2021 EUMETSAT / meteoblue. / Copyright 2021 meteoblue

Radar y precipitación nowcast para 51.15°N 51.54°E

llovizna
Leve
Moderado
Fuerte
Muy fuerte
Granizo

El marcador de lugar se coloca en 51.15°N 51.54°E. Esta animación muestra lo radar de precipitaciones hasta la última hora, así como la 1h previsión. Las lloviznas o las nevadas ligeras pueden ser invisibles para el radar. La intensidad de la precipitación está codificada por colores, que van del azul claro al naranja.